Zaragoza, Spain

5:38 PM CET on December 13, 2019 (GMT +0100)
Zaragoza

Weather History for LEZG - November, 2019

Change the Weather History Date:

Saturday, November 16, 2019

  Actual Average Record
Temperature  
Mean Temperature 44 °F -  
Max Temperature 52 °F 52 °F 116 °F (2002)
Min Temperature 37 °F 38 °F 28 °F (1996)
Degree Days  
Heating Degree Days 20    
Moisture  
Dew Point 36 °F    
Average Humidity 74    
Maximum Humidity 100    
Minimum Humidity 38    
Precipitation  
Precipitation 0.00 in 0.04 in - ()
Sea Level Pressure  
Sea Level Pressure 29.89 in    
Wind  
Wind Speed 9 mph ()    
Max Wind Speed 16 mph    
Max Gust Speed 20 mph    
Visibility 8.0 miles    
Events Rain    
Averages and records for this station are not official NWS values.
T = Trace of Precipitation, MM = Missing Value Source: Averaged Metar Reports

Daily Weather History Graph

Daily Weather History Graph

Search for Another Location

Airport or City:

Astronomy

Nov. 16, 2019 Rise Set
Actual Time 7:53 AM CET 5:43 PM CET
Civil Twilight 7:23 AM CET 6:13 PM CET
Nautical Twilight 6:50 AM CET 6:46 PM CET
Astronomical Twilight 6:17 AM CET 7:19 PM CET
Moon 8:59 PM CET (11/16) 11:35 AM CET (11/16)
Length of Visible Light 10h 49m
Length of Day
9h 49m
Waning Gibbous, 84% of the Moon is Illuminated
Nov 16
Waning Gibbous
Nov 19
Last Quarter
Nov 26
New
Dec 4
First Quarter
Dec 12
Full

Hourly Weather History & Observations

Time (CET) Temp. Windchill Dew Point Humidity Pressure Visibility Wind Dir Wind Speed Gust Speed Precip Events Conditions
12:00 AM 41.0 °F 35.2 °F 39.2 °F 93% 29.74 in - West 9.2 mph - N/A   Clear
12:30 AM 41.0 °F 35.2 °F 39.2 °F 93% 29.77 in - West 9.2 mph - N/A   Clear
1:00 AM 41 °F - 36 °F 77% 29.80 in 12 mi NW 9.2 mph - -   Scattered Clouds
1:00 AM 41.0 °F 35.2 °F 39.2 °F 93% 29.77 in 6.2 mi West 9.2 mph - N/A   Partly Cloudy
1:30 AM 39.2 °F 33.0 °F 39.2 °F 100% 29.77 in 6.2 mi WNW 9.2 mph - N/A   Partly Cloudy
2:00 AM 40 °F - 36 °F 80% 29.81 in - WNW 12.7 mph - -  
2:00 AM 39.2 °F 31.2 °F 39.2 °F 100% 29.77 in 6.2 mi WNW 13.8 mph - N/A   Partly Cloudy
2:30 AM 39.2 °F 32.5 °F 39.2 °F 100% 29.80 in 6.2 mi West 10.4 mph - N/A   Partly Cloudy
3:00 AM 39 °F - 35 °F 82% 29.84 in - West 9.2 mph - -  
3:00 AM 39.2 °F 34.2 °F 37.4 °F 93% 29.80 in 6.2 mi WSW 6.9 mph - N/A   Partly Cloudy
3:30 AM 39.2 °F 31.6 °F 37.4 °F 93% 29.80 in 6.2 mi West 12.7 mph - N/A   Partly Cloudy
4:00 AM 37.4 °F 31.4 °F 37.4 °F 100% 29.80 in - West 8.1 mph - N/A   Clear
4:30 AM 37.4 °F 30.8 °F 37.4 °F 100% 29.80 in - WNW 9.2 mph - N/A   Clear
5:00 AM 38 °F - 34 °F 81% 29.86 in - West 9.2 mph - -  
5:30 AM 37.4 °F 28.9 °F 37.4 °F 100% 29.80 in 6.2 mi West 13.8 mph - N/A   Partly Cloudy
6:30 AM 39.2 °F 30.5 °F 37.4 °F 93% 29.83 in - WNW 16.1 mph - N/A   Clear
7:00 AM 39.2 °F 30.5 °F 37.4 °F 93% 29.86 in - WNW 16.1 mph - N/A   Clear
7:30 AM 37.4 °F 30.3 °F 35.6 °F 93% 29.86 in - West 10.4 mph - N/A   Clear
8:00 AM 38 °F - 33 °F 77% 29.92 in - West 10.4 mph - -  
8:00 AM 37.4 °F 30.3 °F 35.6 °F 93% 29.89 in - West 10.4 mph - N/A   Clear
9:00 AM 40 °F - 34 °F 73% 29.94 in - West 8.1 mph - -  
9:00 AM 41.0 °F 34.7 °F 37.4 °F 87% 29.89 in - WSW 10.4 mph - N/A   Clear
9:30 AM 41.0 °F 35.8 °F 37.4 °F 87% 29.92 in - West 8.1 mph - N/A   Clear
10:00 AM 43 °F - 33 °F 59% 29.95 in 19 mi WNW 9.2 mph - -   Clear
10:00 AM 42.8 °F 38.0 °F 37.4 °F 81% 29.92 in - West 8.1 mph - N/A   Clear
10:30 AM 44.6 °F 40.2 °F 37.4 °F 76% 29.92 in - WNW 8.1 mph - N/A   Clear
11:00 AM 44.6 °F 40.2 °F 33.8 °F 66% 29.92 in - WNW 8.1 mph - N/A   Clear
11:30 AM 46.4 °F 42.4 °F 35.6 °F 66% 29.92 in 6.2 mi NW 8.1 mph - N/A   Partly Cloudy
12:00 PM 49 °F - 35 °F 48% 29.95 in - NW 5.8 mph - -  
12:00 PM 50.0 °F - 37.4 °F 62% 29.92 in 6.2 mi NW 3.5 mph - N/A   Scattered Clouds
12:30 PM 51.8 °F - 35.6 °F 54% 29.92 in 6.2 mi NW 3.5 mph - N/A   Partly Cloudy
1:00 PM 52 °F - 34 °F 38% 29.92 in 19 mi NW 6.9 mph - -   Scattered Clouds
1:30 PM 51.8 °F - 33.8 °F 50% 29.89 in 6.2 mi West 8.1 mph - N/A   Partly Cloudy
2:00 PM 52 °F - 34 °F 38% 29.92 in - West 10.4 mph - -  
2:00 PM 51.8 °F - 35.6 °F 54% 29.89 in 6.2 mi WSW 10.4 mph - N/A   Partly Cloudy
2:30 PM 51.8 °F - 35.6 °F 54% 29.89 in 6.2 mi West 8.1 mph - N/A   Mostly Cloudy
3:00 PM 52 °F - 35 °F 40% 29.91 in - West 11.5 mph - - Rain Light Rain
3:00 PM 51.8 °F - 35.6 °F 54% 29.89 in 6.2 mi West 11.5 mph - N/A Rain Light Rain
3:30 PM 50.0 °F - 35.6 °F 58% 29.89 in 6.2 mi WSW 9.2 mph - N/A   Mostly Cloudy
4:00 PM 51 °F - 36 °F 46% 29.92 in 16 mi West 13.8 mph - -   Partly Cloudy
4:00 PM 50.0 °F - 37.4 °F 62% 29.89 in 6.2 mi WSW 12.7 mph - N/A   Mostly Cloudy
4:30 PM 48.2 °F - 35.6 °F 62% 29.92 in 6.2 mi WSW 15.0 mph - N/A   Overcast
5:00 PM 49 °F - 35 °F 47% 29.93 in - West 11.5 mph - -  
5:00 PM 48.2 °F - 35.6 °F 62% 29.92 in 6.2 mi WSW 12.7 mph - N/A   Mostly Cloudy
5:30 PM 48.2 °F - 35.6 °F 62% 29.92 in 6.2 mi WSW 10.4 mph - N/A   Mostly Cloudy
6:00 PM 48 °F - 37 °F 56% 29.94 in - West 6.9 mph - -  
6:00 PM 46.4 °F 42.4 °F 37.4 °F 71% 29.92 in 6.2 mi West 8.1 mph - N/A   Scattered Clouds
7:00 PM 45 °F - 37 °F 64% 29.94 in 19 mi West 6.9 mph - -   Partly Cloudy
7:30 PM 44.6 °F 39.7 °F 35.6 °F 71% 29.92 in 6.2 mi West 9.2 mph - N/A   Scattered Clouds
8:00 PM 45 °F - 36 °F 62% 29.95 in - WNW 6.9 mph - -  
8:00 PM 42.8 °F 38.0 °F 37.4 °F 81% 29.92 in 6.2 mi West 8.1 mph - N/A   Mostly Cloudy
8:30 PM 42.8 °F 38.6 °F 37.4 °F 81% 29.92 in 6.2 mi WNW 6.9 mph - N/A   Mostly Cloudy
9:00 PM 44 °F - 37 °F 69% 29.96 in - NW 5.8 mph - -  
9:00 PM 42.8 °F 39.3 °F 41.0 °F 93% 29.92 in 6.2 mi NW 5.8 mph - N/A   Mostly Cloudy
9:30 PM 44.6 °F 40.2 °F 39.2 °F 81% 29.92 in 6.2 mi West 8.1 mph 19.6 mph N/A   Scattered Clouds
10:00 PM 44 °F - 36 °F 64% 29.96 in 12 mi West 9.2 mph - -   Scattered Clouds
10:00 PM 44.6 °F 39.7 °F 37.4 °F 76% 29.92 in 6.2 mi WSW 9.2 mph - N/A   Partly Cloudy
10:30 PM 44.6 °F 39.7 °F 35.6 °F 71% 29.92 in 6.2 mi WSW 9.2 mph - N/A   Partly Cloudy
11:00 PM 42.8 °F 38.0 °F 35.6 °F 76% 29.92 in - WSW 8.1 mph - N/A   Clear
11:30 PM 41.0 °F 37.1 °F 35.6 °F 81% 29.92 in - West 5.8 mph - N/A   Clear